Location: Karcze
(52.0945°N, 22.4786°E)
Time: 11:17:30
(UTC+00:00)

Explorer 7 - All Passes

Search period start: 03 August 2021 00:00
Search period end: 13 August 2021 00:00
Orbit: 484 x 676 km, 50.3° (Epoch: 03 August)

Date Brightness Start Highest point End Pass type
(mag) Time Alt. Az. Time Alt. Az. Time Alt. Az.
03 Aug - 02:10:21 10° SSE 02:12:07 13° SE 02:13:55 10° ESE visible
03 Aug - 03:48:10 10° SW 03:51:46 41° SSE 03:55:33 10° E daylight
03 Aug - 05:28:05 10° W 05:31:59 69° S 05:36:06 10° E daylight
03 Aug - 07:08:22 10° W 07:12:16 48° SSW 07:16:23 10° SE daylight
03 Aug - 08:49:15 10° W 08:52:10 18° SW 08:55:12 10° S daylight
04 Aug - 02:13:29 10° S 02:16:09 18° SE 02:18:53 10° E visible
04 Aug - 03:52:16 10° WSW 03:55:59 51° SSE 03:59:52 10° E daylight
04 Aug - 05:32:22 10° W 05:36:16 68° S 05:40:23 10° ESE daylight
04 Aug - 07:12:43 10° W 07:16:29 39° SSW 07:20:28 10° SE daylight
04 Aug - 08:54:17 10° WSW 08:56:14 13° SW 08:58:13 10° SSW daylight
05 Aug - 02:17:06 10° SSW 02:20:15 25° SSE 02:23:28 10° E visible
05 Aug - 03:56:28 10° WSW 04:00:14 60° SSE 04:04:11 10° E daylight
05 Aug - 05:36:40 10° W 05:40:32 63° S 05:44:38 10° ESE daylight
05 Aug - 07:17:07 10° W 07:20:39 30° SSW 07:24:24 10° SSE daylight
06 Aug - 02:20:59 10° SW 02:24:23 33° SSE 02:27:55 10° E visible
06 Aug - 04:00:43 10° WSW 04:04:30 66° S 04:08:29 10° E daylight
06 Aug - 05:40:58 10° W 05:44:48 55° SSW 05:48:51 10° ESE daylight
06 Aug - 07:21:37 10° W 07:24:48 22° SSW 07:28:07 10° SSE daylight
07 Aug - 00:46:54 10° S 00:48:52 14° SE 00:50:52 10° ESE visible
07 Aug - 02:25:00 10° SW 02:28:35 43° SSE 02:32:17 10° E daylight
07 Aug - 04:05:00 10° W 04:08:47 69° S 04:12:47 10° E daylight
07 Aug - 05:45:17 10° W 05:49:02 45° SSW 05:52:59 10° SE daylight
07 Aug - 07:26:20 10° WSW 07:28:53 16° SW 07:31:32 10° S daylight
08 Aug - 00:50:11 10° SSW 00:52:56 20° SE 00:55:44 10° E visible
08 Aug - 02:29:08 10° WSW 02:32:48 53° SSE 02:36:36 10° E daylight
08 Aug - 04:09:16 10° W 04:13:04 67° S 04:17:03 10° ESE daylight
08 Aug - 05:49:38 10° W 05:53:14 36° SSW 05:57:01 10° SE daylight
08 Aug - 07:31:42 10° WSW 07:32:56 11° SW 07:34:10 10° SSW daylight
09 Aug - 00:53:51 10° SSW 00:57:02 27° SSE 01:00:16 10° E visible
09 Aug - 02:33:20 10° WSW 02:37:03 61° S 02:40:54 10° E daylight
09 Aug - 04:13:34 10° W 04:17:20 61° S 04:21:18 10° ESE daylight
09 Aug - 05:54:03 10° W 05:57:24 27° SSW 06:00:55 10° SSE daylight
09 Aug - 23:21:21 10° SE 23:21:37 10° SE 23:21:52 10° SE visible
10 Aug - 00:57:45 10° SW 01:01:12 35° SSE 01:04:41 10° E visible
10 Aug - 02:37:35 10° WSW 02:41:20 67° S 02:45:12 10° E daylight
10 Aug - 04:17:52 10° W 04:21:36 52° SSW 04:25:29 10° ESE daylight
10 Aug - 05:58:36 10° W 06:01:32 20° SW 06:04:34 10° SSE daylight
10 Aug - 23:23:26 10° S 23:25:38 15° SE 23:27:50 10° ESE visible
11 Aug - 01:01:48 10° SW 01:05:24 45° SSE 01:09:03 10° E visible
11 Aug - 02:41:52 10° W 02:45:36 68° S 02:49:29 10° E daylight
11 Aug - 04:22:11 10° W 04:25:49 42° SSW 04:29:37 10° SE daylight
11 Aug - 06:03:27 10° WSW 06:05:36 14° SW 06:07:49 10° S daylight
11 Aug - 23:26:49 10° SSW 23:29:42 21° SSE 23:32:36 10° E visible
12 Aug - 01:05:58 10° WSW 01:09:37 54° SSE 01:13:21 10° E visible
12 Aug - 02:46:08 10° W 02:49:53 65° S 02:53:45 10° ESE daylight
12 Aug - 04:26:33 10° W 04:30:01 32° SSW 04:33:36 10° SE daylight
12 Aug - 23:30:34 10° SSW 23:33:49 28° SSE 23:37:06 10° E visible
